FW8116 Weather Reports


time (UTC)temp
C
wind
direction
speed
KPH
gust
KPH
rain 1hr
cm
rain 24hr
cm
rain mn
cm
humidity
%
barometer
mb
20260505165013 25 130 3.2 17.7 0.00 0.00 0.00 51 1016.4
20260505164530 25 225 3.2 16.1 0.00 0.00 0.00 50 1016.4
20260505164013 24 0 4.8 16.1 0.00 0.00 0.00 49 1016.6
20260505163513 25 120 3.2 8.0 0.00 0.00 0.00 54 1016.6
20260505163031 25 260 0.0 9.7 0.00 0.00 0.00 52 1016.6
20260505162512 24 264 0.0 9.7 0.00 0.00 0.00 53 1016.7
20260505162012 24 247 3.2 9.7 0.00 0.00 0.00 51 1016.7
20260505161530 24 200 3.2 17.7 0.00 0.00 0.00 52 1016.7
20260505161014 23 230 3.2 17.7 0.00 0.00 0.00 56 1016.8
20260505160514 23 255 4.8 17.7 0.00 0.00 0.00 55 1016.7
20260505153029 22 157 1.6 16.1 0.00 0.00 0.00 57 1017.2
20260505152515 22 149 1.6 9.7 0.00 0.00 0.00 58 1017.2
20260505152018 22 248 3.2 11.3 0.00 0.00 0.00 58 1017.2
20260505151530 22 265 1.6 12.9 0.00 0.00 0.00 61 1017.3
20260505151012 22 127 1.6 12.9 0.00 0.00 0.00 59 1017.4
20260505150515 22 346 1.6 11.3 0.00 0.00 0.00 62 1017.4
20260505140512 19 178 1.6 11.3 0.00 0.00 0.00 67 1016.9
20260505125011 16 0 1.6 6.4 0.00 0.00 0.00 77 1017.2
20260505124535 15 0 1.6 8.0 0.00 0.00 0.00 79 1017.2
20260505124011 15 265 0.0 8.0 0.00 0.00 0.00 80 1017.2
20260505123512 15 0 0.0 3.2 0.00 0.00 0.00 81 1017.3
20260505123036 14 0 0.0 4.8 0.00 0.00 0.00 81 1017.4
20260505122511 14 0 0.0 4.8 0.00 0.00 0.00 82 1017.3
20260505122016 13 155 0.0 6.4 0.00 0.00 0.00 82 1017.2
20260505121532 13 125 0.0 6.4 0.00 0.00 0.00 82 1017.4
20260505121013 13 150 0.0 6.4 0.00 0.00 0.00 82 1017.2
20260505120514 13 0 0.0 6.4 0.00 0.00 0.00 83 1017.2
20260505120029 13 0 0.0 6.4 0.00 0.00 0.00 83 1017.1
20260505115511 13 214 0.0 6.4 0.00 0.00 0.00 83 1017.0
20260505115014 12 0 0.0 3.2 0.00 0.00 0.00 83 1017.1
20260505114528 12 0 0.0 3.2 0.00 0.00 0.00 84 1017.1
20260505114013 12 0 0.0 3.2 0.00 0.00 0.00 84 1017.1
20260505113513 12 0 0.0 3.2 0.00 0.00 0.00 84 1017.2
20260505113027 12 0 0.0 3.2 0.00 0.00 0.00 84 1016.9
20260505112517 12 177 0.0 3.2 0.00 0.00 0.00 84 1017.0
20260505112012 12 0 0.0 1.6 0.00 0.00 0.00 84 1017.0
20260505111536 12 0 0.0 4.8 0.00 0.00 0.00 84 1016.8
20260505111011 12 0 0.0 4.8 0.00 0.00 0.00 84 1016.7
20260505110511 12 0 0.0 3.2 0.00 0.00 0.00 84 1016.7
20260505102010 12 0 0.0 1.6 0.00 0.00 0.00 83 1016.1
20260505101532 12 0 0.0 0.0 0.00 0.00 0.00 82 1016.1
20260505101010 12 0 0.0 0.0 0.00 0.00 0.00 82 1016.0
20260505100513 12 0 0.0 0.0 0.00 0.00 0.00 82 1015.9
20260505100031 12 0 0.0 0.0 0.00 0.00 0.00 82 1015.9
20260505095511 12 0 0.0 0.0 0.00 0.00 0.00 81 1015.9
20260505095012 12 0 0.0 1.6 0.00 0.00 0.00 81 1015.9
20260505094529 12 0 0.0 1.6 0.00 0.00 0.00 81 1015.8
20260505094012 12 0 0.0 1.6 0.00 0.00 0.00 81 1015.7
20260505093512 12 0 0.0 0.0 0.00 0.00 0.00 81 1015.6
20260505093028 12 0 0.0 0.0 0.00 0.00 0.00 80 1015.8
20260505092514 12 0 0.0 0.0 0.00 0.00 0.00 80 1015.7
20260505092011 13 0 0.0 1.6 0.00 0.00 0.00 80 1015.6
20260505091531 13 0 0.0 1.6 0.00 0.00 0.00 79 1015.6
20260505091011 13 0 0.0 1.6 0.00 0.00 0.00 79 1015.6
20260505090512 13 0 0.0 1.6 0.00 0.00 0.00 79 1015.7
20260505090036 13 0 0.0 4.8 0.00 0.00 0.00 79 1015.8
20260505085513 13 0 0.0 6.4 0.00 0.00 0.00 79 1015.7
20260505085013 13 0 0.0 6.4 0.00 0.00 0.00 78 1015.7
20260505084530 13 0 0.0 3.2 0.00 0.00 0.00 78 1015.5
20260505084016 13 0 0.0 3.2 0.00 0.00 0.00 79 1015.6
20260505083515 13 0 0.0 3.2 0.00 0.00 0.00 78 1015.5
20260505083031 13 0 0.0 4.8 0.00 0.00 0.00 78 1015.6
20260505082513 13 0 0.0 4.8 0.00 0.00 0.00 78 1015.7
20260505082015 13 0 0.0 4.8 0.00 0.00 0.00 77 1015.6
20260505081541 13 0 0.0 4.8 0.00 0.00 0.00 77 1015.5
20260505081013 13 0 0.0 3.2 0.00 0.00 0.00 77 1015.5
20260505080511 13 0 0.0 3.2 0.00 0.00 0.00 76 1015.5
20260505080033 13 0 0.0 4.8 0.00 0.00 0.00 77 1015.6
20260505075512 13 0 0.0 4.8 0.00 0.00 0.00 76 1015.4
20260505075016 13 163 0.0 4.8 0.00 0.00 0.00 77 1015.5
20260505074530 14 0 0.0 3.2 0.00 0.00 0.00 76 1015.4
20260505074012 14 0 0.0 3.2 0.00 0.00 0.00 76 1015.3
20260505073512 14 0 0.0 4.8 0.00 0.00 0.00 75 1015.4
20260505073041 14 0 0.0 4.8 0.00 0.00 0.00 75 1015.4
20260505072512 14 0 0.0 3.2 0.00 0.00 0.00 75 1015.4
20260505072012 14 0 0.0 3.2 0.00 0.00 0.00 75 1015.4
20260505071546 14 184 0.0 4.8 0.00 0.00 0.00 74 1015.2
20260505071011 15 166 0.0 4.8 0.00 0.00 0.00 74 1015.3
20260505070515 15 0 0.0 3.2 0.00 0.00 0.00 74 1015.3
20260505070029 15 168 0.0 3.2 0.00 0.00 0.00 73 1015.3
20260505065511 15 242 0.0 4.8 0.00 0.00 0.00 73 1015.3
20260505065012 15 0 0.0 4.8 0.00 0.00 0.00 73 1015.3
20260505064531 15 152 0.0 3.2 0.00 0.00 0.00 73 1015.3
20260505064014 15 0 0.0 4.8 0.00 0.00 0.00 72 1015.2
20260505063512 15 0 0.0 4.8 0.00 0.00 0.00 72 1015.3
20260505063030 15 178 0.0 8.0 0.00 0.00 0.00 72 1015.3
20260505062511 15 0 0.0 8.0 0.00 0.00 0.00 72 1015.2
20260505062011 15 0 0.0 8.0 0.00 0.00 0.00 71 1015.3
20260505061533 15 0 0.0 4.8 0.00 0.00 0.00 71 1015.3
20260505061017 16 0 0.0 6.4 0.00 0.00 0.00 70 1015.3
20260505060515 16 128 0.0 6.4 0.00 0.00 0.00 70 1015.4
20260505060030 16 0 0.0 4.8 0.00 0.00 0.00 70 1015.3
20260505055514 16 0 0.0 3.2 0.00 0.00 0.00 70 1015.3
20260505055014 16 190 0.0 4.8 0.00 0.00 0.00 70 1015.3
20260505054547 16 173 0.0 4.8 0.00 0.00 0.00 69 1015.2
20260505054012 16 175 0.0 4.8 0.00 0.00 0.00 69 1015.4
20260505053513 16 107 0.0 6.4 0.00 0.00 0.00 69 1015.5
20260505053038 16 150 1.6 6.4 0.00 0.00 0.00 69 1015.5
20260505052518 16 159 1.6 6.4 0.00 0.00 0.00 69 1015.5
20260505052010 16 182 1.6 11.3 0.00 0.00 0.00 69 1015.5
20260505051538 16 0 1.6 11.3 0.00 0.00 0.00 68 1015.6
20260505051015 16 266 1.6 11.3 0.00 0.00 0.00 68 1015.6
20260505050516 17 235 1.6 11.3 0.00 0.00 0.00 67 1015.6
20260505041530 17 142 1.6 12.9 0.00 0.00 0.00 66 1015.5
20260505041012 17 260 0.0 11.3 0.00 0.00 0.00 66 1015.3
20260505040510 17 187 0.0 11.3 0.00 0.00 0.00 65 1015.5
20260505040036 17 194 1.6 11.3 0.00 0.00 0.00 65 1015.5
20260505035513 17 0 1.6 11.3 0.00 0.00 0.00 65 1015.3
20260505035010 17 259 1.6 6.4 0.00 0.00 0.00 65 1015.4
20260505034528 17 155 1.6 6.4 0.00 0.00 0.00 65 1015.3
20260505034016 18 135 1.6 11.3 0.00 0.00 0.00 65 1015.4
20260505033513 18 170 1.6 11.3 0.00 0.00 0.00 65 1015.3
20260505033031 18 134 1.6 8.0 0.00 0.00 0.00 65 1015.2
20260505032511 18 102 1.6 9.7 0.00 0.00 0.00 64 1015.3
20260505032013 18 110 1.6 9.7 0.00 0.00 0.00 64 1015.3
20260505031530 18 198 1.6 9.7 0.00 0.00 0.00 64 1015.3
20260505031016 18 0 0.0 8.0 0.00 0.00 0.00 63 1015.2
20260505030515 18 180 1.6 8.0 0.00 0.00 0.00 63 1015.3
20260505030032 18 159 0.0 8.0 0.00 0.00 0.00 63 1015.2
20260505025512 18 261 1.6 8.0 0.00 0.00 0.00 62 1015.1
20260505025010 19 191 1.6 9.7 0.00 0.00 0.00 62 1015.1
20260505024530 19 0 1.6 9.7 0.00 0.00 0.00 61 1015.1
20260505024013 19 0 1.6 8.0 0.00 0.00 0.00 61 1015.2
20260505023512 19 247 0.0 12.9 0.00 0.00 0.00 60 1015.2
20260505023028 19 136 1.6 12.9 0.00 0.00 0.00 59 1015.1
20260505022513 19 184 4.8 14.5 0.00 0.00 0.00 59 1014.9
20260505022010 20 103 3.2 14.5 0.00 0.00 0.00 57 1014.9
20260505021529 20 260 3.2 12.9 0.00 0.00 0.00 55 1014.9
20260505021011 20 199 1.6 11.3 0.00 0.00 0.00 54 1014.9
20260505020512 20 176 1.6 12.9 0.00 0.00 0.00 54 1014.7
20260505020028 20 240 3.2 12.9 0.00 0.00 0.00 53 1014.7
20260505015513 20 336 1.6 9.7 0.00 0.00 0.00 51 1014.5
20260505015012 20 199 1.6 9.7 0.00 0.00 0.00 50 1014.6
20260505014528 20 0 0.0 3.2 0.00 0.00 0.00 50 1014.4
20260505014013 20 0 0.0 3.2 0.00 0.00 0.00 49 1014.4
20260505013510 20 0 0.0 8.0 0.00 0.00 0.00 49 1014.5
20260505013033 20 0 0.0 8.0 0.00 0.00 0.00 48 1014.4
20260505012513 20 135 0.0 6.4 0.00 0.00 0.00 48 1014.3
20260505012013 20 0 0.0 6.4 0.00 0.00 0.00 48 1014.3
20260505011528 20 186 0.0 4.8 0.00 0.00 0.00 48 1014.1
20260505011010 20 0 0.0 3.2 0.00 0.00 0.00 48 1014.1
20260505010510 20 0 0.0 3.2 0.00 0.00 0.00 47 1014.1
20260505010030 21 0 0.0 3.2 0.00 0.00 0.00 46 1014.0
20260505005510 21 0 0.0 3.2 0.00 0.00 0.00 46 1014.0
20260505005014 21 0 0.0 1.6 0.00 0.00 0.00 45 1014.0
20260505004528 21 0 0.0 1.6 0.00 0.00 0.00 45 1013.9
20260505004012 21 0 0.0 4.8 0.00 0.00 0.00 45 1013.8
20260505003513 21 126 0.0 4.8 0.00 0.00 0.00 44 1013.8
20260505003028 21 0 0.0 4.8 0.00 0.00 0.00 43 1013.8
20260505002514 22 133 0.0 4.8 0.00 0.00 0.00 43 1013.8
20260505002013 22 0 0.0 6.4 0.00 0.00 0.00 43 1013.7
20260505001531 22 0 0.0 6.4 0.00 0.00 0.00 43 1013.6
20260505001014 22 0 0.0 6.4 0.00 0.00 0.00 42 1013.5
20260505000514 22 0 0.0 6.4 0.00 0.00 0.00 41 1013.5
20260505000029 22 0 0.0 6.4 0.00 0.00 0.00 40 1013.5
20260504235510 23 0 0.0 6.4 0.00 0.00 0.00 40 1013.5
20260504235010 23 281 1.6 12.9 0.00 0.00 0.00 39 1013.4
20260504234528 23 180 1.6 12.9 0.00 0.00 0.00 38 1013.3
20260504234013 23 150 1.6 6.4 0.00 0.00 0.00 37 1013.3
20260504233513 23 0 1.6 6.4 0.00 0.00 0.00 36 1013.3
20260504233030 23 0 0.0 6.4 0.00 0.00 0.00 35 1013.3
20260504232513 24 285 0.0 6.4 0.00 0.00 0.00 35 1013.0
20260504232015 24 240 1.6 6.4 0.00 0.00 0.00 34 1013.1
20260504231529 24 0 1.6 8.0 0.00 0.00 0.00 35 1013.2
20260504231009 25 0 1.6 8.0 0.00 0.00 0.00 34 1013.1
20260504230512 25 158 0.0 9.7 0.00 0.00 0.00 33 1013.1
20260504230032 25 0 1.6 9.7 0.00 0.00 0.00 32 1013.2
20260504225516 25 262 1.6 9.7 0.00 0.00 0.00 33 1013.1
20260504225010 25 149 3.2 9.7 0.00 0.00 0.00 33 1013.1
20260504224530 25 149 0.0 8.0 0.00 0.00 0.00 34 1013.2
20260504224013 25 162 1.6 11.3 0.00 0.00 0.00 34 1013.1
20260504223510 25 273 1.6 11.3 0.00 0.00 0.00 32 1013.2
20260504223030 26 159 1.6 11.3 0.00 0.00 0.00 32 1013.1
20260504222511 26 286 1.6 12.9 0.00 0.00 0.00 34 1013.2
20260504222011 26 273 3.2 12.9 0.00 0.00 0.00 32 1013.3
20260504221529 26 218 3.2 9.7 0.00 0.00 0.00 33 1013.2
20260504221011 26 0 1.6 9.7 0.00 0.00 0.00 33 1013.2
20260504220511 26 274 0.0 12.9 0.00 0.00 0.00 33 1013.2
20260504220030 26 127 1.6 12.9 0.00 0.00 0.00 36 1013.3
20260504215510 26 158 1.6 9.7 0.00 0.00 0.00 33 1013.4
20260504215012 26 94 1.6 9.7 0.00 0.00 0.00 34 1013.3
20260504214530 26 65 1.6 9.7 0.00 0.00 0.00 33 1013.3
20260504214011 26 115 0.0 9.7 0.00 0.00 0.00 34 1013.4
20260504213511 26 11 1.6 11.3 0.00 0.00 0.00 39 1013.4
20260504213029 26 261 1.6 11.3 0.00 0.00 0.00 35 1013.5
20260504212512 26 257 1.6 11.3 0.00 0.00 0.00 35 1013.4
20260504212010 26 250 1.6 9.7 0.00 0.00 0.00 34 1013.4
20260504211529 26 306 3.2 9.7 0.00 0.00 0.00 33 1013.4
20260504211012 26 216 1.6 9.7 0.00 0.00 0.00 33 1013.4
20260504210510 26 151 1.6 11.3 0.00 0.00 0.00 34 1013.4
20260504210029 26 145 3.2 11.3 0.00 0.00 0.00 33 1013.4
20260504205510 26 140 3.2 11.3 0.00 0.00 0.00 33 1013.5
20260504205010 26 251 1.6 11.3 0.00 0.00 0.00 33 1013.2
20260504204529 26 273 3.2 9.7 0.00 0.00 0.00 33 1013.4
20260504204012 26 122 1.6 12.9 0.00 0.00 0.00 35 1013.4
20260504203512 26 194 1.6 12.9 0.00 0.00 0.00 35 1013.5
20260504203032 26 248 1.6 12.9 0.00 0.00 0.00 33 1013.6
20260504202511 26 288 1.6 12.9 0.00 0.00 0.00 37 1013.7
20260504202012 26 271 3.2 12.9 0.00 0.00 0.00 32 1013.5
20260504201530 26 0 1.6 9.7 0.00 0.00 0.00 33 1013.6
20260504201013 26 313 3.2 11.3 0.00 0.00 0.00 34 1013.6
20260504200514 26 95 1.6 11.3 0.00 0.00 0.00 33 1013.7
20260504200038 26 279 3.2 11.3 0.00 0.00 0.00 33 1013.8
20260504195516 26 259 3.2 14.5 0.00 0.00 0.00 35 1013.7
20260504195014 26 218 1.6 14.5 0.00 0.00 0.00 35 1013.9
20260504194527 25 0 4.8 14.5 0.00 0.00 0.00 33 1014.0
20260504194014 25 281 3.2 12.9 0.00 0.00 0.00 38 1014.0
20260504193510 25 22 1.6 14.5 0.00 0.00 0.00 34 1014.1
20260504193029 25 53 3.2 14.5 0.00 0.00 0.00 37 1014.2
20260504192512 25 309 1.6 11.3 0.00 0.00 0.00 39 1014.1
20260504192009 24 169 1.6 11.3 0.00 0.00 0.00 36 1014.1
20260504191546 25 127 3.2 11.3 0.00 0.00 0.00 36 1014.1
20260504191012 25 244 3.2 16.1 0.00 0.00 0.00 37 1014.1
20260504190513 25 243 3.2 16.1 0.00 0.00 0.00 36 1014.2
20260504190032 25 307 1.6 16.1 0.00 0.00 0.00 35 1014.4
20260504185511 25 34 1.6 16.1 0.00 0.00 0.00 36 1014.4
20260504185012 25 254 1.6 9.7 0.00 0.00 0.00 38 1014.5
20260504184533 25 0 1.6 11.3 0.00 0.00 0.00 38 1014.7
20260504184011 25 0 3.2 12.9 0.00 0.00 0.00 34 1014.8
20260504183512 25 270 3.2 12.9 0.00 0.00 0.00 35 1014.6
20260504183038 24 309 1.6 14.5 0.00 0.00 0.00 40 1014.7
20260504182509 24 123 1.6 14.5 0.00 0.00 0.00 36 1014.7
20260504182013 23 303 3.2 14.5 0.00 0.00 0.00 36 1015.1
20260504181531 23 265 3.2 14.5 0.00 0.00 0.00 38 1014.9
20260504181013 24 265 3.2 14.5 0.00 0.00 0.00 35 1014.9
20260504180516 24 196 1.6 9.7 0.00 0.00 0.00 38 1015.0
20260504180033 24 173 1.6 12.9 0.00 0.00 0.00 36 1015.1
20260504175513 23 146 3.2 12.9 0.00 0.00 0.00 36 1015.0
20260504175010 23 132 3.2 12.9 0.00 0.00 0.00 36 1015.2
20260504174530 23 117 1.6 11.3 0.00 0.00 0.00 37 1015.1
20260504174013 23 165 1.6 11.3 0.00 0.00 0.00 37 1015.1
20260504173513 23 96 1.6 11.3 0.00 0.00 0.00 38 1015.1
20260504173030 23 236 3.2 14.5 0.00 0.00 0.00 36 1015.2
20260504172512 23 265 4.8 16.1 0.00 0.00 0.00 36 1015.3
20260504172015 23 308 3.2 16.1 0.00 0.00 0.00 36 1015.2
20260504171528 23 242 3.2 14.5 0.00 0.00 0.00 43 1015.2
20260504171017 23 265 1.6 14.5 0.00 0.00 0.00 40 1015.4
20260504170513 22 345 6.4 14.5 0.00 0.00 0.00 39 1015.5